This is the latest recevied weather packets stored in our database for station/object N2WH. If no packets are shown the sender has not sent any weather packets the latest 10 day(s).
| Time | Temp. | Humidity | Pressure | Rain* | Wind** | Luminosity | Snow |
|---|---|---|---|---|---|---|---|
| 1777651851 | 15.56° C | 45% | 1013.3 hPa | 0 mm | - | 672 W/m² | - |
| 1777651548 | 15.56° C | 47% | 1013.3 hPa | 0 mm | - | 737 W/m² | - |
| 1777651245 | 15.56° C | 45% | 1013.4 hPa | 0 mm | - | 768 W/m² | - |
| 1777650941 | 15.56° C | 46% | 1013.4 hPa | 0 mm | - | 766 W/m² | - |
| 1777650639 | 15.56° C | 45% | 1013.4 hPa | 0 mm | - | 770 W/m² | - |
| 1777650033 | 15° C | 45% | 1013.8 hPa | 0 mm | - | 806 W/m² | - |
| 1777649730 | 15° C | 47% | 1013.8 hPa | 0 mm | - | 814 W/m² | - |
| 1777649427 | 15° C | 48% | 1013.9 hPa | 0 mm | - | 809 W/m² | - |
| 1777649123 | 14.44° C | 44% | 1013.8 hPa | 0 mm | - | 823 W/m² | - |
| 1777648821 | 15° C | 46% | 1014.1 hPa | 0 mm | - | 802 W/m² | - |
| 1777648512 | 14.44° C | 46% | 1013.9 hPa | 0 mm | - | 804 W/m² | - |
| 1777648209 | 14.44° C | 49% | 1014 hPa | 0 mm | - | 780 W/m² | - |
| 1777647903 | 14.44° C | 45% | 1014 hPa | 0 mm | - | 769 W/m² | - |
| 1777647601 | 14.44° C | 47% | 1013.9 hPa | 0 mm | - | 778 W/m² | - |
| 1777647297 | 13.89° C | 46% | 1014 hPa | 0 mm | - | 754 W/m² | - |
| 1777646995 | 13.89° C | 48% | 1014 hPa | 0 mm | - | 741 W/m² | - |
| 1777646386 | 13.89° C | 51% | 1014 hPa | 0 mm | - | 707 W/m² | - |
| 1777646083 | 13.89° C | 49% | 1014.1 hPa | 0 mm | - | 687 W/m² | - |
| 1777645779 | 12.78° C | 50% | 1014 hPa | 0 mm | - | 664 W/m² | - |
| 1777645478 | 12.22° C | 49% | 1014.1 hPa | 0 mm | - | 685 W/m² | - |
| 1777645173 | 12.78° C | 50% | 1014.2 hPa | 0 mm | - | 659 W/m² | - |
| 1777644869 | 12.22° C | 51% | 1014.2 hPa | 0 mm | - | 684 W/m² | - |
| 1777644567 | 12.78° C | 51% | 1014 hPa | 0 mm | - | 655 W/m² | - |
| 1777643959 | 12.22° C | 55% | 1013.9 hPa | 0 mm | - | 593 W/m² | - |
| 1777643657 | 12.22° C | 55% | 1013.8 hPa | 0 mm | - | 544 W/m² | - |
* Rain latest hour (hover to see other rain measurements)
** Current wind speed in m/s (hover to see current wind gust speed)